GFSNE_850_spd_057.txt.gz
Wind_Speed
10 11 11 7 7 8 7 7 6 7 4 3 2 7 7 8 11 18 17 19 19 19 21 23 24 25 26 26 25 25 25 24 23 22 21 19 17 13
9 12 11 9 9 10 9 8 8 9 10 7 7 8 12 13 14 19 22 22 25 26 25 26 28 29 30 32 32 32 32 31 28 26 24 23 20 17
14 12 12 13 10 9 10 10 10 10 12 12 11 12 16 23 25 25 25 23 22 27 30 31 32 32 33 34 36 37 38 38 36 33 30 27 26 22
15 15 15 13 16 15 14 14 13 14 14 19 17 19 20 20 23 27 30 22 21 24 26 26 27 27 28 31 36 42 41 42 43 40 37 33 31 28
19 18 18 17 19 16 17 15 15 17 15 17 19 19 21 21 22 23 25 27 27 22 27 29 30 33 36 35 32 31 35 39 43 44 43 41 38 34
21 20 20 21 22 21 20 21 20 20 19 21 22 22 22 22 22 24 24 23 27 27 27 28 32 33 35 37 35 36 36 32 32 38 44 45 44 40
23 22 22 23 23 24 20 20 20 19 19 21 23 23 23 23 21 25 31 30 30 33 37 33 29 29 31 36 39 39 40 40 35 35 36 38 46 46
26 25 24 24 25 26 29 28 27 27 28 26 26 27 29 29 28 28 32 39 39 26 31 37 33 37 34 29 28 34 37 37 34 35 38 36 37 47
28 26 24 21 23 25 25 25 27 29 32 33 36 37 39 37 37 37 30 33 38 37 32 37 29 33 33 29 35 29 32 36 35 34 34 35 36 38
28 27 28 27 27 23 24 24 27 28 27 28 32 34 35 34 31 32 36 38 37 31 26 33 34 35 32 33 33 33 37 38 36 36 34 38 35 36
34 34 34 34 33 31 32 34 35 35 31 32 34 35 34 32 31 32 34 32 32 27 26 31 27 34 36 38 26 29 33 34 34 33 33 37 33 34
34 36 37 38 38 37 37 37 39 39 37 35 33 32 28 26 28 26 25 29 30 36 24 27 32 31 37 34 33 33 35 37 36 35 32 30 31 28
29 29 29 30 30 30 33 35 39 38 37 34 28 25 24 22 22 20 24 27 33 36 32 27 26 27 29 36 42 37 33 33 37 35 32 27 25 28
33 26 25 27 29 30 31 31 30 29 29 27 25 23 20 21 21 26 28 31 26 25 26 21 23 27 32 36 35 35 38 33 29 29 29 28 22 21
37 27 30 30 29 30 32 31 28 27 28 25 23 21 23 25 26 29 25 17 20 21 19 22 27 22 23 27 31 35 35 38 24 30 24 18 19 23
36 37 37 36 35 28 26 28 28 28 27 24 24 25 27 28 24 14 12 15 16 16 15 18 20 24 23 25 29 28 32 28 30 24 20 18 15 16
35 34 34 34 32 26 25 26 26 24 22 21 26 28 26 18 12 13 14 13 14 14 14 13 18 22 21 23 25 28 30 27 26 25 24 23 14 9
20 24 22 22 22 20 20 21 25 26 25 27 27 22 15 14 14 13 13 12 13 11 13 14 18 16 17 19 18 22 25 18 22 22 21 18 12 6
23 18 20 22 22 21 24 22 22 23 23 20 19 16 12 14 16 12 12 12 10 11 13 13 14 13 16 16 19 17 20 12 13 15 16 12 12 13
24 20 23 20 18 19 20 20 20 22 18 15 12 12 13 13 13 13 12 10 11 13 13 12 14 14 13 14 13 18 16 12 6 7 6 6 10 18
24 27 27 25 23 21 21 20 15 12 12 14 11 11 12 12 12 12 11 11 14 13 14 12 13 20 15 14 15 18 17 11 6 3 3 6 12 17
29 26 26 23 20 19 18 18 19 21 20 14 11 13 14 14 11 10 11 12 13 12 13 15 19 15 12 11 15 17 20 13 9 10 12 12 11 20
22 19 22 21 21 19 19 16 12 11 15 18 18 14 15 13 9 10 9 12 15 13 11 14 13 15 16 11 14 8 18 12 12 11 11 12 13 15

GFSNE_850_spd_060.txt.gz
Wind_Speed
9 16 13 10 6 6 7 7 8 12 10 4 1 5 9 11 14 15 18 24 25 25 25 25 25 26 27 29 31 32 33 32 31 29 26 24 22 19
9 9 9 13 7 7 11 10 9 11 14 8 9 8 12 11 16 22 24 24 27 26 25 23 25 27 28 30 31 32 33 35 36 35 33 31 28 24
15 11 14 10 15 10 10 9 11 12 15 16 14 15 18 20 24 23 23 26 25 23 22 20 21 21 23 25 29 29 29 31 31 36 38 37 35 31
13 20 15 14 13 17 16 15 11 13 16 21 21 21 19 19 22 22 22 25 26 26 23 26 29 31 34 36 35 34 34 28 24 26 32 37 39 38
17 15 17 18 19 18 14 15 17 14 17 19 21 18 21 20 22 23 25 26 23 24 31 29 31 35 36 36 35 34 34 34 32 30 27 28 35 40
24 23 23 22 21 21 20 20 22 21 21 23 25 22 20 21 22 19 19 24 28 22 30 36 27 27 29 32 35 36 34 31 32 32 31 32 29 31
25 26 26 25 25 24 24 22 19 18 20 21 23 21 20 24 27 29 31 31 39 39 35 24 33 31 27 30 31 25 26 30 30 30 33 34 31 31
25 26 27 24 24 22 24 27 26 25 26 27 29 32 33 31 31 34 35 37 41 34 33 37 28 32 34 33 30 31 32 32 31 32 33 29 36 33
27 27 26 25 24 24 22 21 22 22 25 28 32 32 33 28 27 34 32 33 38 38 34 32 31 33 29 25 26 32 32 29 28 32 34 33 31 30
29 28 28 26 24 25 24 24 24 24 23 23 25 26 27 31 30 31 32 34 36 34 28 30 30 31 33 35 24 27 33 30 31 34 31 29 29 26
34 33 33 31 30 26 28 32 31 30 30 31 32 34 32 30 32 33 32 32 34 31 30 28 32 34 34 27 20 29 31 28 30 30 31 34 29 25
38 37 36 35 35 34 34 34 35 33 32 33 33 32 30 31 28 26 27 29 28 30 28 29 30 27 30 19 34 34 29 31 39 34 28 23 21 25
37 37 35 32 29 27 27 29 31 25 26 27 29 31 29 24 25 17 22 23 28 31 27 18 26 25 23 36 36 29 36 36 38 35 34 27 24 24
39 35 31 26 23 22 22 25 24 22 23 27 30 30 24 20 15 19 23 26 27 25 18 17 21 22 29 32 33 35 34 38 35 37 30 24 20 15
38 37 36 29 24 23 24 25 24 26 28 30 31 28 22 17 23 23 24 20 16 14 18 17 19 26 25 28 27 30 36 36 33 32 27 23 19 13
34 35 36 35 33 35 37 35 34 32 30 28 27 23 19 23 23 23 18 11 17 21 13 15 21 23 24 23 23 24 30 27 30 33 30 25 17 11
26 32 34 36 39 38 37 35 34 32 28 27 23 21 23 22 23 13 11 15 19 19 16 7 17 21 23 19 21 22 27 26 25 26 27 25 23 17
19 24 32 33 33 34 33 29 25 27 23 21 23 26 26 23 13 11 17 21 21 18 7 10 18 20 20 18 17 21 24 25 21 20 22 22 23 23
24 21 17 18 18 18 17 18 20 22 21 24 25 24 18 14 10 18 19 18 16 6 11 18 16 17 19 18 21 22 23 22 18 14 14 15 15 18
23 22 18 16 20 24 27 27 25 20 20 19 18 18 14 12 16 14 16 17 12 13 18 18 9 13 17 20 22 21 20 19 17 10 8 7 6 6
20 22 23 24 24 25 23 20 19 19 17 14 13 13 15 15 16 15 18 17 13 15 13 11 13 17 20 19 13 19 23 21 19 11 7 4 3 6
23 20 25 27 28 31 26 23 19 17 17 16 18 21 20 23 23 18 13 12 16 16 14 13 11 16 18 17 14 16 22 19 18 12 10 9 9 7
24 25 25 29 27 20 17 15 15 17 17 22 24 24 22 23 21 16 14 11 12 14 9 4 6 15 17 17 14 14 17 20 16 12 12 12 14 13

GFSNE_850_spd_063.txt.gz
Wind_Speed
17 17 14 10 8 4 4 6 6 8 8 0 6 8 9 12 13 14 15 23 25 21 19 19 17 18 22 25 26 25 25 28 30 32 33 31 28 24
11 17 19 14 12 9 6 9 9 9 10 8 6 8 6 11 12 16 24 22 20 22 22 23 22 24 25 27 29 29 29 26 25 28 30 34 35 33
10 11 14 13 18 15 12 12 10 12 15 12 12 12 15 18 21 20 16 21 24 24 23 25 25 27 30 32 35 35 35 34 34 31 29 29 27 33
15 14 16 13 14 19 17 14 14 14 15 19 18 18 16 13 14 14 19 23 19 17 24 23 25 27 35 33 28 29 29 32 28 28 29 32 34 29
17 17 19 20 18 16 20 22 21 19 19 22 22 19 20 18 14 20 16 17 24 29 28 31 36 31 23 27 30 23 21 23 22 22 24 28 27 37
22 20 19 19 21 20 19 19 18 20 21 23 25 25 20 16 16 20 27 26 28 30 30 26 23 25 20 19 20 21 26 27 29 29 29 31 27 28
25 26 24 23 23 22 22 22 21 21 20 20 22 22 22 21 25 30 31 30 31 29 29 26 26 23 25 26 22 23 26 31 28 26 24 26 29 27
23 23 25 25 23 22 21 21 22 25 25 25 27 29 31 31 27 24 27 31 36 31 32 29 25 28 28 25 27 25 21 23 27 24 25 30 27 28
26 24 23 24 24 25 24 24 22 21 22 23 25 25 24 20 22 28 30 32 33 31 30 33 28 30 28 27 15 15 26 30 28 30 31 31 31 27
26 25 24 23 23 22 22 22 23 23 23 23 24 22 22 24 28 29 31 34 32 27 28 30 28 30 28 18 13 23 29 29 33 36 37 35 32 31
31 30 29 28 25 24 24 26 29 30 28 27 27 28 31 31 30 29 27 28 30 27 24 26 30 28 27 17 22 31 28 32 34 35 37 35 29 24
37 36 35 34 31 30 31 30 32 30 28 28 29 30 27 25 24 25 21 23 25 28 25 28 23 22 23 14 32 32 29 31 31 34 40 41 34 25
40 39 37 36 34 33 33 35 35 23 19 20 22 23 23 24 22 17 17 19 22 23 25 17 20 20 20 28 28 25 30 34 30 35 38 40 35 25
41 37 37 33 30 28 24 20 18 17 21 22 24 25 24 24 18 14 15 17 22 28 17 12 18 18 20 26 29 30 28 33 30 35 36 36 33 18
38 37 37 35 31 25 22 21 21 25 27 27 27 27 26 22 16 15 15 20 20 14 16 19 17 16 18 22 25 25 27 27 31 30 33 34 33 23
34 36 37 37 37 35 33 32 32 29 27 28 26 24 22 18 16 16 20 17 14 13 18 17 17 18 18 21 22 21 23 23 25 26 28 31 29 20
28 32 38 39 39 39 40 37 33 30 28 27 26 21 16 19 16 15 17 12 16 17 18 17 13 15 19 19 19 18 22 24 23 21 24 26 27 19
28 32 31 33 35 36 36 35 36 34 30 25 17 16 17 17 18 18 14 14 17 20 19 9 12 16 21 20 17 20 21 21 22 19 19 20 21 18
35 34 32 29 25 23 27 26 24 23 19 18 15 15 18 18 18 13 11 16 21 17 13 12 11 17 19 18 20 20 17 18 19 17 12 14 15 15
40 38 35 29 24 19 17 18 18 18 19 18 18 19 20 16 12 11 17 20 19 19 18 16 16 17 12 13 19 18 14 17 17 16 8 7 8 7
38 36 33 29 24 19 20 22 23 23 21 19 19 19 16 13 14 18 21 21 20 21 18 16 13 11 11 13 17 16 14 15 16 15 8 3 4 6
24 27 32 30 24 25 27 25 23 22 22 17 17 17 17 17 22 22 22 22 22 19 16 11 15 14 11 13 14 15 13 14 15 16 12 8 7 7
18 25 25 14 21 22 25 22 20 19 18 17 16 17 17 19 21 22 24 24 22 19 12 6 9 12 10 12 11 16 17 15 15 13 12 11 12 13

GFSNE_850_spd_069.txt.gz
Wind_Speed
17 15 12 9 7 5 5 6 7 6 8 5 4 7 9 10 12 16 19 21 20 21 23 22 22 27 26 24 27 24 19 21 19 18 19 18 21 24
20 19 16 15 12 11 9 8 9 10 9 9 10 12 13 14 16 17 17 19 18 20 20 24 29 30 25 21 19 20 18 17 18 16 17 16 18 15
17 20 20 20 19 18 16 14 13 12 15 15 15 15 15 16 16 15 19 16 19 19 25 30 26 22 21 19 16 15 16 17 19 21 22 24 23 21
17 18 18 20 22 23 21 20 18 16 17 20 18 16 16 17 20 22 17 18 19 24 26 24 18 19 15 17 18 18 16 19 20 23 25 23 22 20
19 19 18 17 20 20 22 23 23 21 21 23 23 23 24 22 23 18 18 20 22 20 22 17 17 15 15 16 19 17 19 19 22 26 26 24 22 20
20 21 22 21 20 20 22 21 18 20 22 24 27 27 26 24 21 23 24 20 20 22 20 18 14 13 14 17 18 17 15 22 26 26 28 25 24 24
20 21 22 23 22 22 21 21 21 21 22 24 26 27 27 24 22 21 21 22 24 26 20 16 13 14 14 17 17 12 21 25 25 30 29 29 30 27
26 24 24 24 24 25 25 24 24 24 25 26 27 26 25 23 19 20 22 26 31 27 27 14 15 15 16 17 13 11 24 24 27 31 31 32 32 31
31 29 28 27 26 26 26 27 28 27 27 26 27 27 26 21 21 23 25 28 30 28 25 19 14 15 17 17 11 13 24 25 28 32 33 34 34 35
38 36 34 32 29 27 27 27 27 26 26 26 28 27 25 23 25 25 28 31 32 24 21 20 14 15 18 15 11 17 24 26 28 31 34 34 35 35
44 42 40 37 34 29 27 27 26 26 24 24 24 25 27 27 27 30 30 30 31 24 19 19 16 17 17 13 9 20 23 26 28 30 34 35 36 32
48 47 43 40 37 33 31 29 30 29 25 25 26 26 26 27 27 27 27 28 25 26 15 17 16 18 13 11 16 17 20 22 26 28 31 34 35 31
47 46 45 41 39 36 34 34 34 30 30 31 31 29 29 29 27 25 23 22 23 25 16 18 18 19 15 18 17 17 19 19 22 25 26 29 32 31
47 46 44 41 38 36 35 34 33 33 34 35 36 34 32 28 23 21 22 23 24 22 17 16 22 16 18 19 17 16 18 19 19 22 23 25 28 28
40 41 41 40 37 35 35 34 31 32 33 34 36 34 30 25 24 24 24 27 25 22 18 19 19 17 17 18 18 16 19 19 19 19 18 20 24 24
38 37 36 37 38 37 36 34 33 32 32 33 34 33 30 29 26 25 28 25 23 22 21 21 20 18 17 18 15 16 17 15 16 15 14 16 18 21
34 35 38 40 40 40 39 38 37 34 34 35 35 34 32 30 30 28 27 24 25 23 22 21 20 18 19 17 15 15 16 17 14 13 11 13 15 16
29 34 38 40 41 40 40 39 38 37 38 37 37 37 37 35 31 27 28 26 25 26 22 23 20 20 20 17 16 14 13 16 12 11 9 9 10 11
33 34 34 35 36 36 37 37 34 31 30 33 37 39 39 37 34 31 29 28 28 25 25 23 20 20 20 21 16 14 11 11 11 8 7 6 7 6
37 37 37 35 34 35 34 30 29 31 31 29 29 29 30 29 31 32 31 29 30 25 24 23 20 19 20 18 16 12 10 7 6 9 8 5 5 4
37 36 36 36 33 33 31 31 32 31 30 25 18 17 17 15 21 28 30 30 27 25 24 24 19 16 19 20 17 10 7 5 4 7 9 8 5 6
40 35 34 36 34 34 32 32 32 32 32 30 30 27 22 15 19 25 18 38 34 26 23 20 21 20 20 20 17 13 9 5 6 8 8 9 7 4
40 35 35 31 30 29 25 25 26 25 26 28 28 28 29 34 46 42 67 81 36 26 23 25 24 22 21 19 19 16 13 10 8 11 11 11 10 10

GFSNE_850_spd_072.txt.gz
Wind_Speed
14 14 11 9 6 6 6 7 9 10 12 7 6 8 11 13 16 18 20 19 21 19 20 24 30 29 26 22 18 18 16 16 18 16 17 17 17 18
15 16 14 13 12 10 10 10 11 12 13 14 14 15 15 16 17 18 20 23 20 21 23 28 28 26 22 20 18 18 18 17 17 19 20 20 20 19
13 16 17 16 15 15 15 14 15 17 19 19 18 17 17 18 17 19 21 22 20 22 25 25 25 21 21 20 20 21 19 19 21 19 21 22 19 18
13 15 16 16 17 18 19 19 18 19 21 23 22 21 20 20 22 23 22 21 23 23 21 24 20 19 20 20 22 21 20 19 20 23 23 24 20 17
15 15 16 16 17 17 18 18 19 20 21 24 26 26 26 25 24 23 22 23 20 18 23 19 20 18 20 21 21 20 15 19 23 24 26 25 23 24
15 17 17 18 18 17 17 18 19 21 21 23 25 26 26 25 25 26 26 22 22 22 20 21 15 17 19 21 20 17 14 24 25 28 29 30 29 26
18 17 17 17 18 19 20 20 20 21 22 24 26 27 28 27 24 24 25 25 24 26 25 22 15 18 20 21 21 17 16 26 27 30 32 34 33 29
26 23 22 20 19 18 20 22 23 24 25 26 27 29 28 26 24 22 25 27 29 26 32 23 17 18 19 23 22 18 18 28 29 31 33 36 35 31
29 28 26 24 21 21 21 22 23 24 26 28 30 30 29 25 24 23 24 26 27 29 31 28 19 17 17 23 22 19 19 28 30 32 34 37 36 32
35 33 32 30 27 25 25 25 26 26 26 26 28 28 27 25 24 24 27 30 31 27 24 27 19 15 17 22 21 17 22 26 30 32 35 36 36 34
42 40 38 36 33 30 30 31 30 29 25 24 25 24 24 24 23 26 27 28 31 27 23 25 15 18 19 23 18 18 23 26 28 30 33 35 34 32
47 47 44 41 37 35 35 34 35 32 28 26 26 27 26 26 25 27 26 29 29 29 19 24 22 22 18 16 17 22 22 24 26 27 30 33 32 31
44 45 45 43 41 39 38 37 36 33 32 30 30 32 31 30 29 28 27 27 27 26 21 23 24 20 19 21 22 23 21 24 25 26 27 29 30 29
39 39 39 39 37 36 35 34 33 33 35 35 34 35 36 33 29 28 26 24 24 24 23 22 27 22 19 21 22 23 21 22 23 23 24 25 26 28
32 33 34 35 35 35 36 34 32 33 35 36 36 37 35 33 29 27 23 23 26 25 25 24 25 21 21 22 21 23 20 20 17 22 20 20 24 25
31 30 30 32 33 34 34 33 33 34 35 36 37 36 34 33 30 26 26 23 25 26 23 24 24 21 21 21 21 21 19 17 20 20 19 18 17 19
27 30 32 35 37 38 38 37 36 35 37 37 37 37 36 34 32 28 28 26 28 27 24 22 23 20 22 22 22 21 18 19 19 18 16 17 15 13
19 27 31 34 37 37 38 38 37 36 37 36 36 36 38 37 34 31 30 30 28 26 25 23 23 22 22 23 23 21 19 18 17 15 15 14 13 12
23 26 29 31 33 33 34 37 38 36 34 33 33 33 33 34 33 33 33 32 31 27 25 25 23 23 26 22 24 21 18 17 16 14 11 11 11 10
31 30 31 32 32 31 31 33 33 32 33 32 32 30 28 29 29 32 34 33 32 31 28 29 27 26 22 21 19 19 18 17 15 11 9 8 9 9
35 36 34 34 33 33 33 33 32 33 33 32 31 30 30 31 32 34 32 31 30 28 27 28 26 21 18 19 20 21 19 17 14 11 8 6 7 7
39 37 36 36 36 37 35 34 33 32 33 33 33 33 32 31 31 30 29 30 31 33 33 27 18 20 24 19 21 20 20 18 15 13 12 8 6 5
41 41 39 38 37 38 36 36 35 34 33 35 34 34 33 32 32 28 23 24 26 29 30 26 21 23 27 23 22 22 22 23 19 15 13 10 10 10

GFSNE_850_spd_075.txt.gz
Wind_Speed
12 11 9 9 7 5 4 5 7 7 7 6 7 11 14 15 17 19 21 24 25 23 24 27 28 27 26 26 22 21 21 19 17 18 19 20 21 21
11 12 13 12 11 10 8 8 8 8 9 12 12 16 15 16 17 19 21 24 23 23 26 25 25 25 26 24 22 22 21 19 19 19 21 21 22 20
10 11 14 14 14 14 13 13 13 14 13 13 18 18 18 18 18 19 21 23 23 24 22 24 24 26 23 22 22 22 21 17 19 22 23 23 22 21
10 12 12 14 15 16 16 17 17 18 18 19 18 20 21 20 20 21 20 22 24 20 19 23 25 24 22 22 22 22 19 16 23 24 25 25 25 24
11 13 12 14 14 14 14 16 16 17 18 20 20 19 23 22 22 22 23 22 20 21 20 24 24 23 22 21 23 22 18 17 25 26 28 29 31 30
15 13 14 15 16 15 15 16 16 17 16 19 18 18 18 20 21 19 20 19 23 22 19 23 24 22 21 21 23 22 19 18 27 30 32 34 36 34
18 16 14 13 13 15 17 18 18 18 15 16 18 18 18 16 18 18 18 19 20 21 21 22 17 16 20 20 23 24 21 20 28 32 33 36 38 37
23 22 20 18 18 17 16 16 17 19 21 20 20 21 25 21 17 17 18 18 18 16 25 21 17 15 16 20 22 25 23 20 28 31 33 36 37 37
27 25 24 24 22 21 19 18 19 19 21 22 26 26 26 23 22 23 19 18 20 23 25 20 17 15 15 20 22 26 21 24 26 30 32 34 35 35
36 34 32 30 27 24 23 24 24 24 24 23 26 27 25 23 21 21 23 24 25 21 19 19 16 14 15 22 22 20 22 25 26 29 30 32 34 34
43 40 39 37 34 30 29 30 30 30 28 27 26 27 24 22 21 22 22 19 21 19 17 19 13 15 16 21 19 21 24 25 26 27 28 30 30 29
42 44 44 42 40 37 36 35 36 35 31 30 29 28 27 27 25 25 25 24 22 22 14 18 15 15 14 15 19 24 26 25 25 26 27 29 29 28
40 41 42 42 39 41 40 40 40 35 34 34 32 32 29 30 29 29 27 28 25 24 20 22 16 15 18 23 23 20 22 26 27 27 26 26 27 27
34 34 37 38 36 35 36 38 37 34 34 32 29 29 28 27 27 28 27 28 29 30 22 23 23 17 17 19 17 19 24 25 24 24 25 25 25 26
33 30 28 29 29 31 34 34 30 31 34 35 34 34 32 28 30 31 29 29 28 27 25 24 25 23 21 22 18 22 23 24 20 19 24 23 21 21
32 31 30 30 31 30 30 31 32 34 36 37 37 35 34 33 34 33 30 27 27 27 27 23 22 22 22 21 22 21 21 18 23 19 21 20 19 18
28 30 33 34 36 36 34 32 30 34 38 38 37 35 33 32 34 33 32 29 29 24 19 25 22 22 23 22 21 21 20 20 19 18 18 19 16 16
22 28 33 32 34 36 36 37 37 38 36 35 36 35 35 34 32 30 31 32 32 28 24 21 23 23 24 24 22 20 19 18 18 17 16 15 15 13
24 28 31 34 35 36 35 34 37 37 36 35 32 32 33 34 33 33 29 29 31 32 28 23 29 26 26 24 22 20 21 17 17 17 14 11 12 11
31 31 31 30 29 30 30 31 31 33 34 35 32 32 33 33 34 33 33 31 30 29 28 28 35 34 32 27 21 24 20 18 18 17 13 10 9 10
38 36 33 32 32 31 32 31 30 32 31 31 34 31 30 30 32 31 31 32 33 32 34 38 39 34 30 32 29 28 23 20 18 17 16 11 9 9
40 41 38 37 38 37 36 36 35 34 33 33 35 36 37 34 34 34 35 35 34 32 33 33 34 30 35 37 38 33 27 21 17 19 17 15 10 6
35 39 39 40 40 39 38 38 36 37 36 36 37 37 36 37 36 36 36 35 31 28 27 28 29 32 35 38 33 29 27 20 17 20 17 14 14 14